Location: Ithaca
(42.4410°N, 76.4970°W)
Time: 23:49:00
(UTC-04:00)

HST - Visible Passes

Search period start: 22 October 2014 00:00
Search period end: 01 November 2014 00:00
Orbit: 546 x 550 km, 28.5° (Epoch: 22 October)

Date Brightness Start Highest point End Pass type
(mag) Time Alt. Az. Time Alt. Az. Time Alt. Az.
28 Oct 3.6 20:30:02 10° SSW 20:30:10 10° SSW 20:30:10 10° SSW visible
29 Oct 3.4 18:43:19 10° S 18:43:36 10° S 18:43:52 10° SSE visible
29 Oct 3.5 20:22:41 10° SSW 20:23:16 11° SSW 20:23:16 11° SSW visible
30 Oct 3.4 18:34:57 10° S 18:36:07 11° S 18:37:17 10° SSE visible
30 Oct 3.4 20:15:31 10° SSW 20:16:23 11° S 20:16:23 11° S visible
31 Oct 3.4 18:27:09 10° SSW 18:28:37 12° S 18:30:05 10° SSE visible
31 Oct 3.5 20:09:03 10° S 20:09:10 10° S 20:09:16 10° S visible
